Weather in Mokrous

Russia / Saratov Oblast     51°14′14″N   47°30′53″E
temp.,
°C
wind,
m/s
gust,
m/s
humid.,
%
clouds,
%
prec.,
mm/h
press.,
hPa
HPBL,
m
8 march, mon
mon801:00−4sw91781100 0.0 1008770
04:00−4sw101883100 0.0 1006820
07:00−4sw91688100 0.3 1006737
10:00−3sw8158999 0.3 1007657
13:00−1sw8129199 0.1 1007847
16:00−1sw9139499 0.6 1006928
19:00−1sw71588100 0.2 1006687
22:00−2wsw61392100 0.2 1008571
9 march, tue
tue901:00−4w369495 0.2 1009106
04:00−8nw228893 0.2 101021
07:00−9nnw2287100 0.0 101021
10:00−8n2288100 0.0 101183
13:00−6n2282100 0.0 1010238
16:00−6nnw2387100 0.0 1010259
19:00−11nw349386 0.0 101044
22:00−10wnw499485 0.0 1012208
10 march, wed
wed1001:00−13wnw599433 0.0 1013154
04:00−13wnw5119423 0.0 1014207
07:00−16nw5119217 0.0 1015226
10:00−16nw610919 0.0 1018304
13:00−14wnw699018 0.0 1019413
16:00−13nw698948 0.0 1020591
19:00−17wnw5119288 0.0 1021256
22:00−19nw5119470 0.0 1023200
11 march, thu
thu1101:00−22nw47940 0.0 1024102
04:00−25nw44930 0.0 102672
07:00−26nnw44930 0.0 102766
10:00−23nnw45910 0.0 1029175
13:00−20nnw35890 0.0 1029238
16:00−18nw35910 0.0 1029259
19:00−20wnw34950 0.0 103022
22:00−21wnw34940 0.0 103135
12 march, fri
fri1201:00−21wnw34930 0.0 103241
04:00−22nw34930 0.0 103234
07:00−22nw33970 0.0 103322
10:00−19wnw23950 0.0 103495
13:00−15wnw228942 0.0 1034232
16:00−14w118960 0.0 1033216
19:00−18sw229625 0.0 103320
22:00−19sse229512 0.0 103320